Location: Newark
(45.9608°N, 0.8222°W)
Time: 22:02:27
(UTC+00:00)

N. Korean satellite - Visible Passes

Search period start: 20 September 2020 00:00
Search period end: 30 September 2020 00:00
Orbit: 455 x 503 km, 97.2° (Epoch: 20 September)

Date Brightness Start Highest point End Pass type
(mag) Time Alt. Az. Time Alt. Az. Time Alt. Az.
20 Sep 10.5 04:26:47 10° E 04:27:10 10° E 04:27:32 10° E visible
22 Sep 8.9 05:05:35 10° NNE 05:08:51 29° E 05:12:02 10° SSE visible
23 Sep 9.9 04:40:26 10° NE 04:42:38 15° E 04:44:49 10° SE visible
25 Sep 8.0 05:20:41 10° NNE 05:24:13 45° E 05:27:40 10° S visible
26 Sep 9.4 04:55:09 10° NE 04:58:04 22° E 05:00:56 10° SSE visible
27 Sep 10.2 04:30:35 10° ENE 04:31:49 11° E 04:33:01 10° ESE visible
29 Sep 8.6 05:10:07 10° NNE 05:13:26 33° E 05:16:41 10° SSE visible
